TimeCDT,TemperatureF,Dew PointF,Humidity,Sea Level PressureIn,VisibilityMPH,Wind Direction,Wind SpeedMPH,Gust SpeedMPH,PrecipitationIn,Events,Conditions,WindDirDegrees,DateUTC
12:06 AM,59.0,55.4,88,29.62,10.0,SSW,4.6,-,N/A,,Drizzle,200,2013-10-12 05:06:00
12:26 AM,59.0,55.4,88,29.61,10.0,South,5.8,-,N/A,,Overcast,170,2013-10-12 05:26:00
12:46 AM,59.0,55.4,88,29.62,10.0,South,8.1,-,N/A,,Scattered Clouds,190,2013-10-12 05:46:00
1:06 AM,59.0,53.6,82,29.62,10.0,South,8.1,-,N/A,,Clear,190,2013-10-12 06:06:00
1:26 AM,57.2,53.6,88,29.62,10.0,South,10.4,-,N/A,,Scattered Clouds,190,2013-10-12 06:26:00
1:46 AM,57.2,53.6,88,29.63,10.0,South,10.4,16.1,N/A,,Clear,190,2013-10-12 06:46:00
2:06 AM,57.2,53.6,88,29.64,10.0,SSW,12.7,19.6,N/A,,Mostly Cloudy,200,2013-10-12 07:06:00
2:26 AM,55.4,50.0,82,29.65,10.0,SW,17.3,24.2,N/A,,Overcast,220,2013-10-12 07:26:00
2:46 AM,53.6,46.4,77,29.66,10.0,SSW,15.0,26.5,N/A,,Mostly Cloudy,210,2013-10-12 07:46:00
3:06 AM,53.6,44.6,72,29.66,10.0,SSW,12.7,25.3,N/A,,Mostly Cloudy,210,2013-10-12 08:06:00
3:26 AM,51.8,44.6,76,29.67,10.0,SSW,13.8,24.2,N/A,,Overcast,210,2013-10-12 08:26:00
3:46 AM,51.8,44.6,76,29.67,10.0,SSW,13.8,26.5,N/A,,Overcast,210,2013-10-12 08:46:00
4:06 AM,51.8,42.8,71,29.68,10.0,SSW,12.7,24.2,N/A,,Overcast,210,2013-10-12 09:06:00
4:26 AM,51.8,42.8,71,29.69,10.0,SSW,11.5,20.7,N/A,,Overcast,210,2013-10-12 09:26:00
4:46 AM,51.8,42.8,71,29.70,10.0,SSW,13.8,20.7,N/A,,Overcast,200,2013-10-12 09:46:00
5:06 AM,50.0,41.0,71,29.70,10.0,SSW,10.4,18.4,N/A,,Overcast,210,2013-10-12 10:06:00
5:26 AM,50.0,42.8,76,29.71,10.0,SSW,12.7,18.4,N/A,,Overcast,200,2013-10-12 10:26:00
5:46 AM,50.0,42.8,76,29.71,10.0,SSW,12.7,17.3,N/A,,Overcast,200,2013-10-12 10:46:00
6:06 AM,50.0,41.0,71,29.70,10.0,SSW,11.5,-,N/A,,Overcast,210,2013-10-12 11:06:00
6:26 AM,50.0,41.0,71,29.70,10.0,SSW,8.1,-,N/A,,Overcast,200,2013-10-12 11:26:00
6:46 AM,50.0,42.8,76,29.71,10.0,South,8.1,-,N/A,,Overcast,190,2013-10-12 11:46:00
7:06 AM,50.0,42.8,76,29.72,10.0,SSW,10.4,16.1,N/A,,Overcast,200,2013-10-12 12:06:00
7:26 AM,50.0,42.8,76,29.73,10.0,SSW,9.2,16.1,N/A,,Overcast,200,2013-10-12 12:26:00
7:46 AM,50.0,42.8,76,29.74,10.0,SSW,11.5,-,N/A,,Overcast,210,2013-10-12 12:46:00
8:06 AM,50.0,42.8,76,29.74,10.0,South,10.4,16.1,N/A,,Overcast,190,2013-10-12 13:06:00
8:26 AM,50.0,42.8,76,29.74,10.0,SSW,10.4,18.4,N/A,,Overcast,210,2013-10-12 13:26:00
8:46 AM,50.0,42.8,76,29.74,10.0,SSW,10.4,17.3,N/A,,Overcast,200,2013-10-12 13:46:00
9:06 AM,50.0,42.8,76,29.75,10.0,SSW,11.5,-,N/A,,Overcast,200,2013-10-12 14:06:00
9:26 AM,50.0,42.8,76,29.75,10.0,SSW,9.2,-,N/A,,Overcast,200,2013-10-12 14:26:00
9:46 AM,50.0,42.8,76,29.76,10.0,SSW,11.5,16.1,N/A,,Overcast,200,2013-10-12 14:46:00
10:06 AM,50.0,42.8,76,29.76,10.0,SSW,15.0,19.6,N/A,,Overcast,210,2013-10-12 15:06:00
10:26 AM,51.8,42.8,71,29.76,10.0,SSW,10.4,18.4,N/A,,Overcast,210,2013-10-12 15:26:00
10:46 AM,51.8,42.8,71,29.77,10.0,SSW,10.4,20.7,N/A,,Overcast,200,2013-10-12 15:46:00
11:06 AM,51.8,42.8,71,29.77,10.0,SW,11.5,23.0,N/A,,Overcast,220,2013-10-12 16:06:00
11:26 AM,51.8,42.8,71,29.77,10.0,SSW,13.8,18.4,N/A,,Overcast,200,2013-10-12 16:26:00
11:46 AM,51.8,41.0,67,29.79,10.0,SW,10.4,18.4,N/A,,Overcast,230,2013-10-12 16:46:00
12:06 PM,53.6,41.0,62,29.79,10.0,SSW,15.0,21.9,N/A,,Overcast,210,2013-10-12 17:06:00
12:26 PM,51.8,41.0,67,29.80,10.0,SSW,13.8,19.6,N/A,,Overcast,210,2013-10-12 17:26:00
12:46 PM,51.8,41.0,67,29.81,10.0,SSW,11.5,17.3,N/A,,Overcast,210,2013-10-12 17:46:00
1:06 PM,51.8,41.0,67,29.81,10.0,SW,13.8,24.2,N/A,,Overcast,220,2013-10-12 18:06:00
1:26 PM,51.8,41.0,67,29.81,10.0,SW,13.8,18.4,N/A,,Overcast,220,2013-10-12 18:26:00
1:46 PM,51.8,41.0,67,29.81,10.0,SSW,13.8,18.4,N/A,,Overcast,210,2013-10-12 18:46:00
2:06 PM,51.8,41.0,67,29.82,10.0,SW,11.5,20.7,N/A,,Overcast,230,2013-10-12 19:06:00
2:26 PM,50.0,41.0,71,29.83,10.0,SW,13.8,21.9,N/A,,Overcast,220,2013-10-12 19:26:00
2:46 PM,50.0,41.0,71,29.84,10.0,SSW,10.4,18.4,N/A,,Overcast,200,2013-10-12 19:46:00
3:06 PM,50.0,41.0,71,29.84,10.0,SW,15.0,20.7,N/A,,Overcast,230,2013-10-12 20:06:00
3:26 PM,50.0,41.0,71,29.85,10.0,SW,11.5,20.7,N/A,,Overcast,220,2013-10-12 20:26:00
3:46 PM,48.2,41.0,76,29.86,10.0,WSW,10.4,21.9,N/A,,Overcast,240,2013-10-12 20:46:00
4:06 PM,46.4,42.8,87,29.87,7.0,SW,12.7,18.4,N/A,,Overcast,230,2013-10-12 21:06:00
4:26 PM,46.4,42.8,87,29.88,7.0,SW,9.2,-,N/A,,Drizzle,220,2013-10-12 21:26:00
4:46 PM,46.4,42.8,87,29.89,10.0,SW,10.4,-,N/A,,Overcast,220,2013-10-12 21:46:00
5:06 PM,46.4,42.8,87,29.90,7.0,SW,8.1,-,N/A,,Light Drizzle,220,2013-10-12 22:06:00
5:26 PM,46.4,42.8,87,29.91,10.0,SW,8.1,-,N/A,,Light Drizzle,230,2013-10-12 22:26:00
5:46 PM,46.4,42.8,87,29.92,10.0,SW,8.1,-,N/A,,Light Drizzle,230,2013-10-12 22:46:00
6:06 PM,46.4,42.8,87,29.92,7.0,WSW,8.1,-,N/A,,Light Drizzle,240,2013-10-12 23:06:00
6:26 PM,46.4,44.6,93,29.93,10.0,WSW,8.1,-,N/A,,Overcast,240,2013-10-12 23:26:00
6:46 PM,46.4,42.8,87,29.95,7.0,WSW,9.2,-,N/A,,Overcast,250,2013-10-12 23:46:00
7:06 PM,46.4,42.8,87,29.96,4.0,West,8.1,-,N/A,,Drizzle,260,2013-10-13 00:06:00
7:26 PM,46.4,44.6,93,29.98,7.0,West,9.2,16.1,N/A,,Light Drizzle,260,2013-10-13 00:26:00
7:46 PM,46.4,42.8,87,29.99,10.0,West,6.9,-,N/A,,Light Drizzle,260,2013-10-13 00:46:00
8:06 PM,46.4,42.8,87,30.00,10.0,West,8.1,-,N/A,,Light Drizzle,260,2013-10-13 01:06:00
8:26 PM,46.4,42.8,87,30.00,10.0,WSW,6.9,-,N/A,,Overcast,250,2013-10-13 01:26:00
8:46 PM,46.4,42.8,87,30.01,10.0,West,8.1,-,N/A,,Overcast,260,2013-10-13 01:46:00
9:06 PM,46.4,42.8,87,30.02,10.0,West,6.9,-,N/A,,Overcast,260,2013-10-13 02:06:00
9:26 PM,46.4,42.8,87,30.03,10.0,West,4.6,-,N/A,,Overcast,260,2013-10-13 02:26:00
9:46 PM,46.4,42.8,87,30.04,10.0,West,5.8,-,N/A,,Overcast,260,2013-10-13 02:46:00
10:06 PM,46.4,42.8,87,30.05,10.0,West,8.1,-,N/A,,Overcast,260,2013-10-13 03:06:00
10:26 PM,46.4,42.8,87,30.06,10.0,West,4.6,-,N/A,,Overcast,260,2013-10-13 03:26:00
10:46 PM,46.4,42.8,87,30.06,10.0,West,6.9,-,N/A,,Overcast,260,2013-10-13 03:46:00
11:06 PM,46.4,42.8,87,30.07,10.0,West,6.9,-,N/A,,Overcast,260,2013-10-13 04:06:00
11:26 PM,46.4,41.0,81,30.09,10.0,West,5.8,-,N/A,,Overcast,260,2013-10-13 04:26:00
11:46 PM,46.4,41.0,81,30.09,10.0,West,6.9,-,N/A,,Overcast,280,2013-10-13 04:46:00